TimeCDT,TemperatureF,Dew PointF,Humidity,Sea Level PressureIn,VisibilityMPH,Wind Direction,Wind SpeedMPH,Gust SpeedMPH,PrecipitationIn,Events,Conditions,WindDirDegrees,DateUTC
12:56 AM,55.0,43.0,64,30.30,10.0,East,8.1,-,N/A,,Mostly Cloudy,90,2013-05-25 05:56:00
1:56 AM,53.1,46.0,77,30.30,8.0,East,4.6,-,0.01,Rain,Light Rain,100,2013-05-25 06:56:00
2:56 AM,52.0,44.1,74,30.31,10.0,ESE,4.6,-,0.01,Rain,Light Rain,110,2013-05-25 07:56:00
3:56 AM,51.1,45.0,80,30.31,10.0,East,6.9,-,0.01,Rain,Light Rain,80,2013-05-25 08:56:00
4:56 AM,50.0,43.0,77,30.32,10.0,ESE,6.9,-,0.01,,Overcast,110,2013-05-25 09:56:00
5:56 AM,50.0,44.1,80,30.34,10.0,East,8.1,-,N/A,,Overcast,100,2013-05-25 10:56:00
6:56 AM,48.9,45.0,86,30.38,10.0,East,5.8,-,N/A,,Overcast,90,2013-05-25 11:56:00
7:56 AM,50.0,43.0,77,30.38,10.0,ESE,6.9,-,N/A,,Overcast,110,2013-05-25 12:56:00
8:56 AM,50.0,41.0,71,30.36,10.0,ESE,5.8,-,N/A,,Overcast,110,2013-05-25 13:56:00
9:56 AM,52.0,43.0,71,30.36,10.0,ESE,6.9,-,N/A,,Overcast,110,2013-05-25 14:56:00
10:56 AM,53.1,42.1,66,30.35,10.0,East,8.1,-,N/A,,Overcast,100,2013-05-25 15:56:00
11:56 AM,55.0,44.1,67,30.35,10.0,East,10.4,-,N/A,,Overcast,90,2013-05-25 16:56:00
12:56 PM,57.9,43.0,58,30.30,10.0,East,10.4,-,N/A,,Scattered Clouds,100,2013-05-25 17:56:00
1:56 PM,59.0,43.0,55,30.31,10.0,East,12.7,-,N/A,,Overcast,100,2013-05-25 18:56:00
2:56 PM,59.0,39.9,49,30.32,10.0,SE,9.2,-,N/A,,Overcast,130,2013-05-25 19:56:00
3:56 PM,57.9,37.0,46,30.32,10.0,ESE,6.9,-,N/A,,Overcast,120,2013-05-25 20:56:00
4:56 PM,57.0,37.0,47,30.31,10.0,ESE,10.4,-,N/A,,Overcast,110,2013-05-25 21:56:00
5:56 PM,57.9,37.9,47,30.29,10.0,ESE,8.1,-,N/A,,Overcast,120,2013-05-25 22:56:00
6:56 PM,57.9,37.9,47,30.28,10.0,SE,8.1,-,N/A,,Overcast,140,2013-05-25 23:56:00
7:56 PM,57.0,39.9,53,30.28,10.0,SE,4.6,-,N/A,,Overcast,130,2013-05-26 00:56:00
8:56 PM,55.9,44.1,64,30.29,10.0,Calm,Calm,-,N/A,,Overcast,0,2013-05-26 01:56:00
9:56 PM,55.0,46.0,72,30.29,10.0,East,3.5,-,N/A,,Overcast,100,2013-05-26 02:56:00
10:56 PM,52.0,45.0,77,30.29,10.0,East,3.5,-,N/A,,Clear,100,2013-05-26 03:56:00
11:56 PM,51.1,42.1,71,30.29,10.0,East,3.5,-,N/A,,Clear,80,2013-05-26 04:56:00